Theta_e
323 321 320 323 320 317 320 319 315 320 327 327 321 319 321 321 322 325 323 323 329 338 346 352 355 354 352 351 349 350 353 355 356 355 353 352 352 352 351 349 349 350 350 350 350 350 351 352 353 353 355 356 358 359 360 360 359 358 358 358 357 357 357
321 323 321 322 322 321 319 315 316 323 327 328 324 321 321 322 321 321 320 321 322 324 334 350 359 357 355 354 350 351 354 355 356 356 354 354 353 352 351 350 351 352 351 351 351 350 350 351 352 354 356 357 359 359 359 358 358 357 357 357 356 356 357
321 323 322 320 321 323 321 319 322 321 318 318 320 320 321 321 320 319 319 321 319 318 328 346 356 358 358 357 355 354 355 355 356 355 354 354 354 352 352 352 351 351 352 352 352 351 350 351 353 354 356 357 359 359 358 355 356 356 355 355 354 356 356
322 321 320 316 316 322 322 322 324 321 318 317 317 319 319 318 318 318 318 319 318 323 338 351 358 361 360 359 359 357 355 355 356 355 354 355 356 355 353 351 351 352 352 352 353 353 351 351 354 355 356 358 358 358 358 356 354 355 355 353 353 355 355
319 317 319 317 318 320 318 317 318 317 317 318 318 318 317 316 316 317 319 317 318 336 359 362 360 361 360 360 360 358 355 354 354 354 354 355 355 354 353 352 353 352 352 351 352 353 353 353 355 355 356 357 357 358 358 357 356 355 355 353 353 355 355
314 316 321 323 322 323 320 317 316 316 317 315 316 316 315 316 315 315 318 316 323 346 360 358 358 358 358 360 359 357 355 354 354 354 354 354 354 353 352 353 354 352 352 352 351 353 353 354 355 356 357 357 357 358 358 358 358 356 355 354 354 355 356
317 321 324 323 323 325 324 321 320 321 320 314 312 313 314 315 315 316 317 317 329 351 354 352 357 356 356 359 357 356 356 353 354 353 353 354 355 355 352 352 354 354 354 353 352 354 354 354 355 354 356 357 356 357 358 358 359 358 356 354 355 357 358
320 322 323 322 323 324 322 322 323 323 321 318 317 316 317 315 313 316 318 316 329 350 352 353 356 354 357 359 357 358 356 355 355 354 355 356 356 356 353 353 355 356 355 354 353 355 354 355 355 354 355 356 356 357 358 357 358 358 356 355 357 359 359
317 317 319 319 320 322 321 322 325 324 323 324 322 321 321 317 313 316 317 315 328 349 353 352 354 354 356 358 358 358 357 356 357 357 359 358 357 357 355 355 357 358 358 358 357 355 354 353 354 354 357 357 356 356 358 357 357 358 357 356 358 360 360
314 315 316 315 317 320 321 322 325 326 325 324 321 318 316 314 315 318 315 315 333 353 353 351 354 354 354 357 357 356 357 358 357 357 358 357 357 357 356 356 357 358 358 359 357 355 356 356 355 356 358 356 354 356 358 357 356 356 358 358 358 358 359
316 318 318 320 320 320 319 321 325 326 326 327 325 317 313 315 318 317 317 322 334 347 352 354 355 353 354 357 356 355 357 357 357 357 357 356 356 356 356 357 357 357 357 357 356 355 356 357 356 356 357 353 352 355 357 357 356 357 358 359 358 358 358
319 321 321 322 323 322 321 323 325 327 329 329 324 317 319 324 316 314 326 332 329 337 353 355 352 354 355 355 354 354 356 356 355 356 355 356 356 356 357 357 356 356 356 356 357 355 354 354 354 354 354 352 352 354 355 354 353 354 356 357 358 357 357
320 322 320 322 324 324 326 327 326 329 331 329 326 323 330 335 322 320 336 338 327 335 353 353 350 353 352 351 352 352 353 354 354 354 355 355 354 354 354 354 354 355 355 356 356 356 354 354 353 353 352 353 353 354 354 353 352 351 351 352 354 355 356
319 321 321 322 323 323 325 327 329 331 333 332 333 334 338 340 334 332 339 341 338 346 353 351 349 349 348 349 350 351 353 353 352 354 355 354 352 352 351 351 352 352 354 355 355 355 355 354 353 353 352 352 353 353 353 353 353 353 351 349 350 350 352
317 320 321 321 322 321 321 324 329 331 333 333 336 339 340 339 339 342 341 342 347 352 351 350 349 348 349 349 350 352 353 351 351 351 351 351 352 351 350 350 351 351 352 353 352 352 353 352 352 353 352 352 352 353 354 354 354 354 353 352 351 350 350
315 319 321 320 320 320 318 321 327 330 330 332 335 340 342 340 340 343 339 337 345 351 349 349 349 349 350 349 349 351 350 349 350 350 349 350 351 349 348 348 348 348 348 349 348 347 347 347 348 348 348 349 349 350 352 352 353 354 353 353 353 352 352
315 318 320 319 318 317 316 320 327 331 332 333 336 339 342 343 343 341 336 338 348 352 347 348 351 351 350 349 349 349 348 349 350 349 349 348 347 346 346 345 344 344 344 345 344 343 343 343 344 344 345 345 346 347 348 348 350 351 351 352 352 352 352
316 318 320 319 317 316 317 321 327 331 331 332 335 339 340 342 342 341 340 344 350 349 347 348 350 350 349 348 347 347 347 347 348 348 347 346 344 344 343 342 343 342 342 341 341 341 341 341 341 342 343 343 343 344 343 343 344 345 345 346 347 348 349
317 319 319 316 316 317 320 322 324 327 329 330 336 341 341 341 341 342 343 345 347 348 347 347 348 348 347 344 343 344 344 345 346 347 346 344 342 340 340 339 340 340 340 340 340 340 340 340 340 341 341 341 341 340 340 338 339 339 339 340 341 341 342
318 318 316 317 319 320 321 321 322 325 328 330 333 337 338 339 341 343 344 345 346 347 345 344 344 344 342 341 342 342 342 343 343 342 342 342 340 338 338 337 337 339 338 338 338 337 337 337 337 338 339 339 339 338 337 336 335 336 336 336 336 336 336
318 314 314 319 321 320 320 322 323 325 326 327 329 331 335 339 341 342 344 345 345 344 344 342 340 339 340 341 340 338 339 340 340 339 339 338 336 334 333 333 334 335 335 334 334 334 334 334 334 334 335 335 336 336 335 335 334 333 333 333 332 331 331
317 314 315 319 319 318 321 323 323 324 324 323 325 329 334 339 340 341 343 344 344 343 342 340 338 339 343 344 338 334 336 337 337 337 337 335 333 330 329 329 330 331 331 331 331 331 331 331 331 331 331 331 333 333 333 333 333 332 331 331 330 329 329
316 314 314 316 318 321 325 325 323 323 322 322 324 326 329 335 339 340 341 342 342 341 340 340 341 343 347 345 337 332 333 335 334 334 333 332 331 329 328 328 328 328 329 328 328 328 328 328 329 329 329 329 329 330 330 331 331 331 330 330 329 329 330
315 314 313 315 320 324 327 325 323 322 322 322 323 323 325 330 335 339 340 341 341 341 339 339 342 345 345 342 335 331 333 335 334 333 331 330 330 329 329 328 327 327 327 326 326 326 326 326 326 326 327 327 327 326 327 327 328 329 329 329 329 328 329
314 313 312 315 321 326 326 325 323 322 322 320 319 321 325 326 329 336 339 339 341 340 337 338 342 341 338 335 332 332 333 334 334 334 332 330 330 330 329 328 327 326 326 325 325 325 325 324 324 324 325 326 325 324 324 325 325 326 327 328 328 328 328
314 314 313 314 321 326 326 325 324 325 323 321 321 324 327 325 328 335 338 337 338 338 337 338 340 336 332 331 332 332 332 333 333 333 333 332 331 331 329 328 327 325 325 324 324 323 324 323 323 324 325 325 324 324 323 322 323 324 325 326 327 327 327
315 313 312 314 320 325 327 326 327 328 326 325 325 327 327 327 330 335 336 337 337 337 337 337 336 333 330 330 331 331 331 332 332 331 332 332 330 329 329 327 326 325 324 324 323 323 323 323 323 323 324 325 325 324 323 322 321 322 323 324 325 326 326
316 313 315 319 323 325 325 326 327 327 325 325 325 326 327 328 332 334 334 335 336 336 336 336 334 332 330 329 329 329 329 330 330 330 329 329 328 327 327 325 325 325 324 324 323 324 324 324 324 323 324 325 325 324 324 323 322 322 322 322 323 323 324
319 319 322 324 326 325 324 324 324 324 324 324 324 326 327 329 332 333 333 334 334 333 333 332 331 330 328 327 328 328 327 328 329 328 327 326 326 326 325 325 324 323 324 324 323 323 324 324 324 323 323 324 324 323 322 322 322 322 322 321 322 322 322
321 323 325 325 326 325 324 323 323 323 324 324 325 327 329 330 331 332 332 332 330 329 330 331 330 329 326 325 325 325 326 327 327 326 326 326 325 325 325 324 323 322 323 323 322 322 322 321 321 321 320 321 322 321 321 320 321 321 321 322 322 321 322
320 323 326 326 325 325 324 324 324 324 323 323 325 328 330 330 330 331 330 330 329 328 328 329 329 327 325 324 326 326 325 326 326 325 325 324 324 324 324 324 323 322 322 321 320 319 319 318 318 318 318 318 319 319 318 319 319 320 321 322 322 321 322
321 325 327 325 324 324 324 324 324 323 323 324 325 327 329 330 330 330 330 329 329 328 328 327 326 325 324 325 326 326 325 325 324 323 323 323 324 324 324 324 323 322 321 321 320 319 318 318 317 316 316 316 316 316 316 317 319 320 320 321 321 321 322
322 325 326 325 325 325 324 323 324 324 324 323 323 324 326 328 328 328 329 329 329 329 328 327 326 324 324 325 325 324 324 326 325 324 323 322 322 321 321 321 322 323 322 321 321 320 319 318 317 317 317 315 315 315 315 316 318 320 320 320 321 321 321
321 324 326 326 326 327 325 323 324 325 324 323 323 322 323 324 325 326 327 327 328 329 329 328 327 325 325 326 325 324 324 325 325 325 324 322 320 319 319 321 323 324 323 322 321 320 319 319 318 318 317 316 315 315 314 315 316 318 319 320 320 320 320
324 326 326 326 326 326 325 323 323 324 325 325 324 324 323 322 323 324 324 325 326 327 328 328 328 328 327 327 326 325 325 324 325 325 324 322 321 320 320 322 323 323 322 321 321 321 320 319 318 318 317 316 316 315 314 315 315 316 318 318 318 319 319
325 326 325 326 326 325 324 323 323 324 324 324 324 324 324 324 323 323 324 323 324 325 326 327 327 327 327 327 327 326 325 324 324 324 323 323 322 320 320 321 321 321 321 320 320 320 319 319 318 317 317 316 315 314 314 314 315 315 316 317 318 318 318
326 325 325 325 325 324 323 323 323 323 324 324 324 323 323 324 324 324 324 324 323 323 324 325 325 325 326 326 327 326 325 324 323 323 322 322 321 320 319 319 320 320 321 320 320 319 319 318 318 317 317 316 315 314 314 313 314 314 314 315 317 317 318
Wind_Speed
10 14 13 12 9 4 6 8 10 8 6 7 6 6 5 5 6 5 6 6 3 5 5 5 4 4 5 5 8 11 11 13 14 14 15 16 16 15 15 14 13 15 18 19 19 19 18 17 17 17 18 19 19 18 18 18 18 18 18 18 17 16 16
11 8 8 13 12 7 4 6 10 7 3 6 6 6 6 6 8 5 6 8 8 6 4 3 5 5 5 5 8 10 11 12 14 14 15 16 17 16 15 14 14 15 17 18 19 19 18 17 18 19 20 20 19 19 18 18 19 19 18 17 17 16 16
10 7 7 10 12 12 7 4 6 8 5 6 7 6 7 7 8 6 7 7 8 7 4 5 6 5 6 5 7 10 11 12 12 13 14 15 15 14 14 14 12 13 16 17 18 18 18 17 17 19 19 18 17 17 17 18 19 19 18 17 16 16 16
8 9 8 8 9 11 9 6 5 7 6 6 7 7 7 7 8 7 7 7 7 4 2 6 7 6 5 6 6 8 10 10 10 11 13 13 12 12 13 13 11 12 14 16 16 16 17 17 16 16 17 17 16 15 16 17 17 17 17 17 16 16 16
7 8 9 10 8 10 11 8 7 8 6 6 6 7 8 7 8 7 6 7 4 2 4 6 8 6 4 4 6 7 8 9 10 11 13 14 14 13 13 12 10 12 15 16 16 16 16 16 16 16 16 16 16 15 15 16 16 16 17 17 16 16 15
7 6 7 7 5 5 10 10 9 9 8 7 6 8 9 7 8 6 6 7 2 4 3 4 7 6 4 4 5 6 7 8 9 10 12 14 14 13 14 12 11 14 15 14 14 15 15 15 15 15 15 16 16 15 15 15 16 16 17 17 17 16 15
3 4 4 3 5 5 7 8 10 9 8 9 9 8 8 7 9 8 5 6 1 5 2 4 5 5 5 5 6 6 6 6 7 9 11 12 12 13 14 14 13 14 15 14 13 13 14 14 14 15 15 15 16 16 16 16 17 17 16 16 16 16 16
1 4 4 3 2 6 9 8 9 8 7 9 8 8 7 7 10 8 6 7 3 5 3 3 5 5 6 5 5 6 6 5 6 7 8 9 10 12 13 13 12 13 16 17 16 15 14 14 14 15 15 14 14 15 15 16 17 17 16 15 15 15 15
6 6 6 6 6 8 8 5 4 5 7 8 6 6 5 6 10 10 9 8 3 6 3 4 5 6 6 5 5 5 6 6 6 5 6 7 8 10 12 11 11 12 13 14 14 14 15 15 14 15 14 14 14 14 14 15 15 16 16 15 15 15 14
6 5 4 3 4 6 4 2 1 3 8 9 7 6 6 7 8 8 10 7 4 7 6 6 7 6 6 6 6 5 5 5 6 6 6 6 6 9 11 10 9 10 11 11 11 12 12 12 13 13 13 14 13 12 12 12 12 14 15 16 16 15 14
0 2 3 3 2 2 3 2 1 3 5 7 7 8 8 8 7 8 9 7 4 7 8 8 8 8 7 7 6 6 5 5 6 6 6 6 6 6 8 8 7 8 9 10 11 10 9 8 9 9 11 13 13 11 10 10 11 12 14 15 15 15 14
6 6 7 6 3 2 3 2 1 2 3 5 9 9 5 5 8 8 6 8 8 8 10 10 9 9 8 7 6 6 6 5 5 6 6 6 6 5 6 6 5 7 8 9 10 11 10 8 7 7 8 11 13 13 12 13 13 14 13 13 14 14 14
7 7 8 7 5 5 4 3 3 1 3 4 7 6 4 4 6 4 3 9 10 7 10 11 9 9 8 7 6 5 5 5 5 6 7 7 7 7 6 6 6 6 6 6 8 11 12 11 10 10 10 11 12 13 13 14 16 17 17 16 14 13 13
7 7 8 7 5 5 5 6 6 4 3 2 1 0 4 3 3 3 3 7 4 4 9 9 8 8 8 7 6 6 5 5 5 5 6 7 7 7 7 7 7 7 7 8 7 7 9 10 11 11 10 11 12 12 13 14 16 17 19 19 18 17 17
6 5 5 5 4 2 4 7 8 7 6 4 4 4 5 3 3 2 3 6 5 6 7 9 8 8 8 8 7 7 6 5 5 5 5 6 7 8 8 7 7 8 9 10 10 10 9 7 7 7 6 6 6 6 8 11 13 14 16 17 18 19 20
6 2 2 1 0 2 2 7 10 10 9 6 5 6 6 4 2 0 4 5 4 5 6 8 9 8 9 9 8 7 6 5 6 6 7 7 8 9 10 9 9 9 10 12 13 12 12 11 10 9 9 8 5 3 3 4 5 7 10 14 16 18 18
6 3 4 5 4 5 3 5 8 8 8 8 6 5 6 5 3 1 2 1 3 5 6 7 8 8 9 9 7 6 7 6 6 7 8 9 10 10 10 11 11 11 11 13 14 14 13 12 11 9 9 8 7 5 4 3 4 4 5 8 12 14 15
6 4 4 5 5 5 1 4 5 6 7 8 7 6 6 4 4 3 2 3 3 5 7 7 8 8 7 7 6 6 7 6 7 8 9 9 10 11 11 11 11 13 14 15 15 15 15 14 13 11 10 10 10 9 8 6 6 5 5 4 4 5 6
4 3 5 8 6 2 3 5 5 5 5 5 4 5 5 4 4 4 3 1 2 5 6 7 8 7 6 7 6 7 7 6 8 9 9 10 11 11 10 11 13 15 16 17 17 17 16 15 15 13 12 13 13 13 13 12 11 10 10 9 7 7 7
3 4 7 6 2 4 5 3 5 6 4 5 3 1 4 4 3 3 2 2 4 6 7 8 8 7 8 7 5 6 7 7 8 9 9 10 11 11 11 12 14 15 16 17 17 16 15 15 14 14 13 14 15 17 17 16 15 14 15 14 12 12 12
4 6 6 4 2 3 4 3 5 5 4 6 5 1 3 4 3 3 4 4 6 7 7 8 8 8 9 7 6 6 6 7 9 10 11 12 13 15 15 15 15 15 15 16 16 15 15 15 13 13 13 13 15 17 17 16 15 14 16 16 15 15 16
3 6 5 5 6 4 3 4 5 5 5 5 4 2 1 3 4 3 5 6 7 7 7 7 9 10 9 7 6 6 6 8 11 13 15 16 17 18 17 16 16 15 15 16 16 16 17 16 14 14 14 14 15 16 16 15 14 14 14 13 13 14 15
4 6 6 5 5 2 5 5 5 7 6 3 2 3 1 4 5 1 4 6 8 8 6 4 4 6 6 5 6 7 6 8 12 13 15 16 17 17 17 16 16 16 15 16 16 16 16 15 14 13 13 13 15 15 14 13 14 14 12 11 11 12 11
3 4 5 3 1 3 6 7 7 7 6 4 4 4 1 5 7 4 0 4 8 8 8 6 2 1 1 2 6 8 7 7 11 13 15 16 16 16 17 17 16 16 15 16 16 15 14 13 12 11 11 12 13 13 13 12 13 13 12 10 10 10 10
2 3 5 2 3 4 7 9 7 6 4 4 4 2 2 6 8 6 3 3 6 8 9 7 3 3 5 6 8 8 7 7 7 9 13 16 16 16 17 17 15 15 15 15 15 14 13 12 11 11 11 12 13 12 12 12 12 11 10 10 9 9 9
1 2 4 2 4 4 9 9 5 5 4 3 2 4 5 7 7 5 4 2 4 6 7 5 4 6 9 11 12 10 7 7 8 8 10 13 14 16 16 14 13 14 14 15 15 14 12 11 11 10 11 11 11 10 11 11 10 8 8 8 8 8 8
2 3 4 2 2 5 10 10 4 3 4 2 4 6 6 5 5 4 3 1 2 4 5 5 6 9 11 11 12 11 9 9 10 10 10 10 12 14 14 13 12 13 13 13 13 12 11 10 10 10 10 10 10 10 10 9 8 7 7 7 7 7 7
3 2 0 2 3 5 9 8 4 5 5 4 5 6 5 5 4 2 1 1 1 2 3 5 6 8 10 9 9 10 9 9 11 11 10 10 10 12 12 12 11 10 11 11 11 11 10 9 9 9 9 9 9 10 9 7 6 6 5 5 5 6 6
2 3 4 4 3 3 5 5 4 5 5 5 5 5 4 4 3 2 1 3 4 3 4 7 8 8 8 7 7 8 8 8 10 10 10 9 9 11 12 11 10 10 10 11 10 10 9 9 8 8 8 8 9 8 6 5 4 4 4 4 4 4 5
2 2 3 3 3 4 4 4 4 4 6 5 5 5 3 4 4 3 3 6 8 9 9 10 9 8 8 8 8 8 8 8 9 10 9 8 9 10 10 9 8 8 8 8 8 8 8 8 8 8 7 8 7 6 5 4 4 4 4 4 4 4 4
1 2 3 4 3 4 4 3 4 4 5 6 6 5 5 5 4 4 6 7 9 10 10 11 10 10 11 11 9 7 6 7 9 9 7 6 8 9 8 9 9 7 5 5 6 7 7 7 7 7 7 7 7 6 5 5 5 5 4 4 4 4 4
1 2 5 4 3 4 5 4 4 4 6 7 7 6 5 5 6 6 6 5 6 6 7 9 11 11 12 12 11 8 7 8 10 11 8 7 8 8 7 6 6 6 6 7 7 7 7 6 6 7 7 7 6 6 6 6 5 5 5 5 5 5 4
3 3 5 5 4 4 5 6 6 5 5 6 8 7 6 6 6 6 4 3 2 2 4 8 10 10 10 11 11 11 11 11 13 14 15 14 13 13 12 7 4 4 7 8 8 9 8 6 6 7 7 7 7 6 6 6 5 6 6 6 5 5 5
3 2 4 3 2 2 5 7 7 7 6 6 8 8 8 7 5 4 3 2 1 1 2 6 8 9 9 11 11 10 10 13 15 16 17 17 16 15 15 11 7 6 8 9 9 9 8 7 6 6 6 6 6 6 6 6 6 6 6 5 6 6 6
2 5 5 2 1 2 6 6 6 6 6 7 8 9 9 8 7 5 4 3 2 1 0 3 5 5 8 12 12 10 10 14 16 16 17 17 15 14 14 11 9 9 9 9 10 9 8 7 7 6 6 6 5 6 6 6 6 6 5 5 5 5 6
2 4 4 3 2 4 6 5 5 6 5 6 7 8 8 8 8 7 7 6 4 2 1 1 2 3 5 9 12 12 12 14 15 16 16 16 15 16 15 12 11 12 11 10 10 10 9 8 8 7 6 5 5 5 6 6 6 6 5 4 4 4 4
1 4 5 4 4 5 6 4 4 5 5 5 6 7 7 7 7 7 7 7 6 5 3 1 1 1 3 5 8 11 12 13 15 15 15 13 14 16 16 14 13 13 13 12 12 11 10 10 9 8 7 6 5 5 5 6 6 6 5 5 4 4 4
Wind_Direction
194 204 211 212 223 216 179 200 217 227 254 249 231 234 246 262 257 217 203 234 217 150 156 155 164 189 187 192 198 189 179 175 179 185 187 188 188 187 187 189 191 191 191 194 195 197 198 196 195 192 189 190 190 189 190 192 195 199 201 203 204 205 205
193 211 220 204 217 232 193 205 210 198 252 264 239 236 228 228 245 222 197 229 229 198 183 162 168 167 158 174 180 174 171 172 177 180 183 186 188 187 186 187 189 191 192 193 195 198 199 196 195 193 191 191 191 191 193 193 195 200 202 204 206 206 207
175 178 219 205 206 223 242 277 217 191 209 224 215 237 235 221 237 227 200 224 240 228 193 161 162 135 119 143 159 162 166 171 176 177 179 182 182 183 185 184 185 186 189 193 194 196 198 197 195 193 192 192 193 194 196 197 198 200 202 205 205 206 208
163 174 205 206 193 205 236 280 232 203 227 231 213 223 233 233 240 231 212 219 229 230 134 126 128 109 109 135 151 159 163 166 172 172 169 168 168 175 182 181 177 177 184 192 194 194 195 194 192 191 189 191 195 194 194 198 199 199 202 206 205 206 209
180 195 199 211 201 189 203 225 219 207 219 239 235 223 224 239 247 234 228 228 205 95 65 95 110 110 108 126 146 156 158 160 166 169 169 169 170 177 179 172 174 183 185 189 193 191 190 188 186 186 187 188 192 192 193 194 194 196 201 204 205 207 210
202 190 179 224 260 212 200 205 214 213 210 220 230 221 216 232 248 240 241 242 185 86 77 102 114 123 121 133 152 154 156 155 157 168 178 177 173 177 175 167 180 191 181 182 192 187 181 182 182 183 184 185 187 189 190 190 191 196 201 203 204 206 208
211 89 126 250 304 269 226 215 218 217 211 215 221 221 210 217 238 246 260 259 159 95 111 110 111 122 123 144 164 160 162 161 161 170 176 172 165 170 174 170 179 182 165 169 190 181 172 177 179 183 186 186 188 189 188 188 190 195 200 201 200 201 204
173 87 137 188 242 237 231 225 226 229 227 221 223 238 235 222 227 225 236 246 194 108 109 105 114 128 129 149 168 164 165 167 173 171 163 162 163 170 178 174 169 164 156 167 182 176 174 180 180 184 189 188 191 193 192 193 194 196 199 199 197 197 201
184 166 167 173 190 210 220 221 232 268 266 247 241 257 259 243 231 217 221 235 180 114 128 137 140 146 143 155 164 157 158 159 166 160 141 149 165 173 178 173 162 157 155 162 169 172 181 188 185 185 182 178 185 195 199 200 198 197 197 194 193 195 199
208 189 180 177 181 191 204 223 246 263 253 243 243 243 235 236 233 221 229 236 129 125 158 161 159 165 157 158 158 147 142 141 152 156 142 147 167 175 178 175 166 162 158 154 158 170 180 183 185 187 178 173 182 194 201 202 200 197 193 191 192 196 199
221 89 84 50 35 168 175 174 199 218 223 233 240 236 235 236 229 226 234 232 162 153 172 172 168 169 163 158 158 154 145 134 143 149 146 154 164 171 177 176 169 168 168 163 164 175 181 173 173 178 174 176 185 192 197 198 196 193 191 190 194 199 200
86 86 95 86 71 95 101 97 130 180 183 213 227 232 266 272 240 231 211 206 211 187 170 174 174 168 165 165 166 161 147 137 133 131 136 145 142 141 156 159 156 168 178 176 173 178 186 183 172 169 172 180 188 196 200 201 201 202 200 196 198 202 202
101 98 107 107 99 87 76 61 45 72 162 200 226 236 338 332 259 258 192 206 223 192 160 167 169 165 169 171 162 143 133 136 135 138 143 137 127 126 135 137 140 152 160 162 169 178 183 185 182 180 184 188 194 199 201 202 205 211 213 210 208 209 206
125 113 114 113 106 95 84 67 45 44 103 116 159 48 19 357 302 307 236 206 195 129 145 149 147 156 167 165 149 133 142 150 145 149 149 137 132 134 133 136 140 140 134 130 139 158 171 180 185 186 190 196 201 203 204 204 204 207 212 213 214 216 217
152 118 105 113 111 94 82 68 46 41 56 64 63 42 13 348 350 341 212 176 122 105 126 128 132 150 163 163 151 139 144 151 149 152 148 139 137 131 127 129 125 119 118 116 110 105 105 118 138 144 147 161 179 194 206 212 211 208 209 211 212 216 219
187 125 15 59 1 267 124 69 38 31 37 40 52 43 13 356 0 230 190 174 135 120 125 128 134 150 165 164 150 139 140 142 141 134 123 122 119 112 110 109 103 103 106 106 102 96 92 92 98 105 107 109 117 141 179 202 208 210 215 216 216 216 214
216 214 296 307 297 263 203 67 26 19 30 34 47 52 31 12 344 274 203 44 71 121 151 146 140 158 173 161 144 144 145 134 120 109 107 111 109 105 105 105 105 105 101 101 100 97 95 94 95 103 110 108 105 99 100 150 183 190 210 220 221 221 218
231 211 266 278 258 244 187 56 13 359 14 18 31 50 51 38 3 344 333 359 61 151 178 161 151 168 165 143 140 145 141 133 123 117 117 115 108 106 108 107 106 105 102 103 103 101 100 98 95 100 107 106 103 96 94 115 144 136 119 133 168 188 199
242 200 234 242 228 190 80 57 17 352 342 347 17 55 55 40 15 356 320 293 150 191 187 149 151 166 139 127 136 132 130 134 127 121 120 116 110 107 106 105 105 106 107 106 104 102 101 99 98 100 102 101 98 95 94 97 103 106 103 95 89 98 110
243 215 219 229 212 103 104 78 25 8 338 332 336 107 65 29 4 1 8 115 154 193 180 144 149 158 135 125 115 107 117 124 122 124 123 116 112 109 108 108 107 106 107 104 101 98 98 98 99 99 100 99 95 92 91 90 89 95 96 89 83 88 93
242 238 222 214 192 151 143 95 33 14 354 352 333 272 73 34 1 41 70 119 150 174 174 153 152 153 139 130 118 106 108 112 119 125 119 113 114 112 109 106 101 98 99 97 94 93 93 93 92 90 88 89 90 92 92 86 80 80 82 84 86 88 87
239 252 229 215 224 205 124 71 35 2 348 351 325 274 94 25 359 69 107 132 151 168 173 164 167 170 161 149 132 112 101 110 121 122 117 114 115 112 109 107 103 98 96 95 94 93 92 90 89 90 87 83 83 86 88 87 81 74 71 74 81 84 82
234 249 235 226 234 206 63 38 3 349 349 350 299 234 150 11 345 3 127 141 156 165 154 139 176 192 183 156 127 108 102 118 123 118 114 113 112 110 109 107 105 101 98 96 95 93 91 91 91 92 88 83 82 84 85 87 85 79 73 68 69 73 76
227 251 249 235 167 78 39 5 346 350 352 323 265 223 131 3 334 322 36 154 162 155 137 120 89 107 147 100 85 77 74 104 116 115 117 119 117 113 109 107 106 104 101 100 96 91 90 92 92 90 86 81 78 78 81 82 79 77 75 71 67 67 70
212 242 248 215 102 60 7 351 350 353 330 275 260 255 2 338 320 314 307 195 167 154 155 157 135 127 142 123 94 72 52 58 76 94 113 121 120 112 110 112 114 110 104 100 96 94 92 91 89 88 85 81 77 75 76 75 71 68 70 73 73 71 70
297 252 252 220 116 53 351 335 338 341 302 252 305 346 325 312 309 301 284 232 174 169 175 166 121 128 143 134 123 118 98 72 59 60 84 104 110 109 110 112 114 111 108 104 100 98 98 97 96 95 91 87 85 83 80 76 73 69 67 71 73 73 75
280 234 245 249 122 48 356 332 326 4 351 345 353 337 319 319 316 292 284 283 178 182 177 150 126 128 130 124 123 130 126 107 91 78 76 87 101 108 111 113 113 110 108 104 99 97 96 95 97 100 101 101 97 90 84 79 78 78 75 76 79 79 79
292 251 166 32 44 34 6 353 21 38 13 353 334 323 324 338 337 304 317 39 138 184 177 148 123 111 107 105 111 120 119 108 101 97 92 91 94 96 97 102 106 105 104 101 96 92 89 90 93 97 101 102 98 92 88 83 80 80 79 81 84 85 83
357 7 45 56 48 35 27 29 37 25 6 351 333 320 317 334 349 356 25 66 81 98 129 122 98 79 73 77 91 105 106 100 100 102 103 101 98 93 89 86 87 93 95 93 90 90 87 85 87 88 91 93 91 86 82 80 78 77 77 78 79 79 81
86 62 55 71 66 49 53 69 62 26 11 7 357 353 1 4 5 31 89 103 101 103 110 109 99 90 87 83 84 92 92 89 91 95 101 113 121 120 114 108 105 102 91 83 88 95 94 90 87 83 81 82 79 71 61 55 56 59 68 77 77 69 67
188 142 98 84 67 48 49 77 95 63 34 28 23 27 42 36 32 66 100 121 127 125 124 127 133 139 133 122 112 105 99 98 99 94 92 107 121 128 134 139 142 141 130 119 118 108 95 90 89 84 78 74 69 60 52 48 49 53 59 71 78 76 69
263 104 104 103 90 73 58 52 66 62 45 44 47 51 60 59 63 81 98 121 138 142 148 152 156 160 154 142 138 147 158 158 148 139 138 144 140 133 138 150 153 151 151 149 140 126 113 102 91 84 79 73 64 54 47 47 50 54 54 55 63 72 75
238 138 136 151 148 116 88 66 59 57 51 55 59 63 71 73 75 83 82 77 107 150 159 160 166 172 166 158 158 163 171 179 174 162 161 168 166 157 157 165 175 169 160 153 143 135 130 120 103 93 85 75 66 57 48 46 51 57 56 51 48 49 53
257 97 115 141 163 116 90 74 65 60 59 66 68 65 65 67 67 70 69 53 16 0 150 167 177 177 173 177 183 181 181 186 184 171 166 170 173 169 167 169 181 186 169 154 146 141 134 127 117 107 97 84 73 62 53 50 53 56 56 54 50 44 39
11 57 70 71 40 86 90 83 70 59 53 60 67 66 63 65 64 58 53 45 12 347 250 197 197 189 187 194 204 210 199 186 179 174 171 171 173 175 174 174 180 181 170 158 153 147 140 137 131 119 111 101 84 73 68 63 61 60 56 55 56 53 49
44 76 68 55 62 99 103 92 69 59 49 50 61 61 55 57 60 58 54 47 35 26 28 206 214 224 213 204 207 214 204 185 177 178 177 175 175 177 181 184 184 178 172 169 164 156 150 149 143 135 130 120 103 89 81 74 71 69 63 58 55 51 52
86 91 78 77 89 102 110 107 85 69 55 54 62 60 53 50 46 46 52 48 38 35 37 62 142 245 254 220 207 207 201 190 183 179 179 182 182 180 185 191 189 182 179 176 169 164 163 160 155 151 147 140 129 115 97 87 85 81 74 67 59 45 36